Location: Baix
(44.7118°N, 4.7648°E)
Time: 15:06:27
(UTC+00:00)

Explorer 11/Cluster Stage 4 - Pass Details

Date: 03 December 2020
Orbit: 467 x 1258 km, 28.8° (Epoch: 14 January)

Event Time Altitude Azimuth Distance (km) Brightness Sun altitude
Rises 20:25:16 0° 238° (WSW) 4,122 10.7 -46.0°
Enters shadow 20:29:01 10° 224° (SW) 3,078 9.8 -46.7°
Reaches altitude 10° 20:29:02 10° 224° (SW) 3,072 - -46.7°
Maximum altitude 20:34:24 21° 180° (S) 2,199 - -47.6°
Drops below altitude 10° 20:39:13 10° 134° (SE) 2,707 - -48.4°
Sets 20:42:18 0° 118° (ESE) 3,506 - -48.9°
